TimeMDT,TemperatureF,Dew PointF,Humidity,Sea Level PressureIn,VisibilityMPH,Wind Direction,Wind SpeedMPH,Gust SpeedMPH,PrecipitationIn,Events,Conditions,WindDirDegrees,DateUTC
12:53 AM,66.0,60.1,81,30.02,10.0,WNW,4.6,-,N/A,,Clear,300,2013-07-26 06:53:00
1:53 AM,64.9,59.0,81,30.03,10.0,WNW,3.5,-,N/A,,Clear,300,2013-07-26 07:53:00
2:53 AM,63.0,59.0,87,30.04,10.0,WSW,3.5,-,N/A,,Clear,240,2013-07-26 08:53:00
3:53 AM,62.1,57.9,86,30.04,10.0,West,5.8,-,N/A,,Clear,270,2013-07-26 09:53:00
4:53 AM,62.1,57.9,86,30.05,10.0,West,3.5,-,N/A,,Clear,270,2013-07-26 10:53:00
5:53 AM,61.0,57.0,87,30.06,9.0,WSW,4.6,-,N/A,,Clear,240,2013-07-26 11:53:00
6:53 AM,64.9,60.1,84,30.07,7.0,West,3.5,-,N/A,,Clear,270,2013-07-26 12:53:00
7:53 AM,72.0,61.0,68,30.09,7.0,North,6.9,-,N/A,,Clear,10,2013-07-26 13:53:00
8:53 AM,75.0,60.1,60,30.10,10.0,NE,9.2,-,N/A,,Clear,40,2013-07-26 14:53:00
9:53 AM,77.0,55.9,48,30.11,10.0,NE,9.2,-,N/A,,Clear,50,2013-07-26 15:53:00
10:53 AM,80.1,55.0,42,30.12,10.0,ENE,6.9,-,N/A,,Clear,60,2013-07-26 16:53:00
11:53 AM,82.9,53.1,36,30.11,10.0,NE,8.1,18.4,N/A,,Clear,50,2013-07-26 17:53:00
12:53 PM,84.0,48.9,29,30.09,10.0,NE,11.5,-,N/A,,Clear,50,2013-07-26 18:53:00
1:53 PM,86.0,48.0,27,30.06,10.0,ENE,10.4,-,N/A,,Clear,60,2013-07-26 19:53:00
2:53 PM,87.1,46.9,25,30.06,10.0,ENE,12.7,18.4,N/A,,Clear,70,2013-07-26 20:53:00
3:53 PM,87.1,48.0,26,30.04,10.0,Variable,4.6,-,N/A,,Clear,0,2013-07-26 21:53:00
4:53 PM,86.0,46.9,26,30.05,10.0,NNE,6.9,-,N/A,,Clear,30,2013-07-26 22:53:00
5:53 PM,84.9,46.9,27,30.01,10.0,SE,4.6,-,N/A,,Clear,140,2013-07-26 23:53:00
6:53 PM,84.9,46.0,26,30.00,10.0,SE,8.1,-,N/A,,Clear,130,2013-07-27 00:53:00
7:53 PM,81.0,45.0,28,30.00,10.0,SSE,13.8,-,N/A,,Clear,150,2013-07-27 01:53:00
8:53 PM,77.0,46.0,33,30.02,10.0,SSE,11.5,-,N/A,,Clear,150,2013-07-27 02:53:00
9:53 PM,73.0,46.9,39,30.04,10.0,SSE,11.5,-,N/A,,Clear,150,2013-07-27 03:53:00
10:53 PM,73.0,48.9,42,30.05,10.0,SSE,12.7,-,N/A,,Clear,160,2013-07-27 04:53:00
11:53 PM,71.1,52.0,51,30.07,10.0,NNE,4.6,-,N/A,,Scattered Clouds,30,2013-07-27 05:53:00